Location: *
(2.5500°S, 65.9667°W)
Time: 17:07:37
(UTC+00:00)

A-11 Canister half - Pass Details

Date: 15 April 2024
Orbit: 1525 x 1683 km, 47.3° (Epoch: 21 May)

Event Time Altitude Azimuth Distance (km) Brightness Sun altitude
Exits shadow 08:06:22 53° 192° (SSW) 1,916 9.2 -34.3°
Maximum altitude 08:08:56 71° 129° (SE) 1,693 9.1 -33.6°
Drops below altitude 10° 08:18:50 10° 47° (NE) 3,894 11.7 -31.2°
Sets 08:22:01 0° 45° (NE) 4,895 12.4 -30.4°
